TimePDT,TemperatureF,Dew PointF,Humidity,Sea Level PressureIn,VisibilityMPH,Wind Direction,Wind SpeedMPH,Gust SpeedMPH,PrecipitationIn,Events,Conditions,WindDirDegrees,DateUTC
12:56 AM,55.0,46.9,74,29.98,10.0,West,18.4,-,N/A,,Partly Cloudy,280,2013-05-14 07:56:00
1:56 AM,55.0,46.9,74,29.98,10.0,WSW,10.4,-,N/A,,Partly Cloudy,250,2013-05-14 08:56:00
2:56 AM,54.0,46.9,77,29.97,10.0,West,15.0,-,N/A,,Mostly Cloudy,270,2013-05-14 09:56:00
3:56 AM,54.0,46.9,77,29.96,10.0,West,19.6,-,N/A,,Mostly Cloudy,260,2013-05-14 10:56:00
4:01 AM,53.6,46.4,77,29.96,10.0,West,18.4,-,N/A,,Mostly Cloudy,260,2013-05-14 11:01:00
4:56 AM,54.0,46.9,77,29.96,10.0,West,12.7,-,N/A,,Mostly Cloudy,260,2013-05-14 11:56:00
5:34 AM,53.6,46.4,77,29.96,10.0,West,12.7,-,N/A,,Scattered Clouds,260,2013-05-14 12:34:00
5:56 AM,53.1,46.9,80,29.97,10.0,West,8.1,-,N/A,,Scattered Clouds,260,2013-05-14 12:56:00
6:56 AM,54.0,46.9,77,29.97,10.0,Calm,Calm,-,N/A,,Partly Cloudy,0,2013-05-14 13:56:00
7:56 AM,57.0,48.0,72,29.97,10.0,Variable,3.5,-,N/A,,Partly Cloudy,0,2013-05-14 14:56:00
8:56 AM,59.0,48.0,67,29.99,10.0,West,13.8,-,N/A,,Partly Cloudy,260,2013-05-14 15:56:00
9:56 AM,60.1,46.9,62,29.99,10.0,West,11.5,-,N/A,,Partly Cloudy,270,2013-05-14 16:56:00
10:56 AM,63.0,46.0,54,30.00,10.0,West,17.3,23.0,N/A,,Partly Cloudy,280,2013-05-14 17:56:00
11:56 AM,63.0,46.0,54,30.01,10.0,West,12.7,19.6,N/A,,Partly Cloudy,270,2013-05-14 18:56:00
12:56 PM,64.9,46.0,50,30.00,10.0,SW,19.6,24.2,N/A,,Partly Cloudy,230,2013-05-14 19:56:00
1:56 PM,64.0,45.0,50,30.00,10.0,West,20.7,26.5,N/A,,Partly Cloudy,260,2013-05-14 20:56:00
2:56 PM,63.0,45.0,52,29.99,10.0,West,16.1,21.9,N/A,,Partly Cloudy,270,2013-05-14 21:56:00
3:56 PM,63.0,45.0,52,29.98,10.0,WSW,21.9,28.8,N/A,,Partly Cloudy,250,2013-05-14 22:56:00
4:56 PM,62.1,45.0,53,29.98,10.0,West,13.8,23.0,N/A,,Partly Cloudy,260,2013-05-14 23:56:00
5:56 PM,61.0,44.1,54,29.98,10.0,West,15.0,21.9,N/A,,Partly Cloudy,260,2013-05-15 00:56:00
6:56 PM,59.0,43.0,55,29.97,10.0,West,20.7,29.9,N/A,,Partly Cloudy,270,2013-05-15 01:56:00
7:56 PM,55.9,43.0,62,29.99,10.0,West,17.3,-,N/A,,Partly Cloudy,260,2013-05-15 02:56:00
8:56 PM,55.0,43.0,64,30.00,10.0,West,20.7,28.8,N/A,,Partly Cloudy,260,2013-05-15 03:56:00
9:56 PM,55.0,43.0,64,30.01,10.0,West,12.7,21.9,N/A,,Partly Cloudy,260,2013-05-15 04:56:00
10:56 PM,54.0,43.0,66,30.04,10.0,WSW,18.4,23.0,N/A,,Partly Cloudy,250,2013-05-15 05:56:00
11:56 PM,53.1,44.1,71,30.04,10.0,WSW,18.4,26.5,N/A,,Partly Cloudy,250,2013-05-15 06:56:00